Location: Bay Creek Structure Number 5 Dam
(37.4851°N, 88.6884°W)
Time: 04:21:29
(UTC+00:00)

CORIOLIS - Pass Details

Date: 13 October 2019
Orbit: 819 x 838 km, 98.7° (Epoch: 12 November)

Event Time Altitude Azimuth Distance (km) Brightness Sun altitude
Rises 23:37:18 0° 168° (SSE) 3,334 7.3 -4.1°
Reaches altitude 10° 23:39:38 10° 169° (S) 2,405 6.5 -4.6°
Maximum altitude 23:44:57 81° 256° (WSW) 834 4.3 -5.6°
Drops below altitude 10° 23:50:20 10° 345° (NNW) 2,422 6.7 -6.7°
Sets 23:52:41 0° 346° (NNW) 3,360 7.4 -7.1°
